Location: Clanezzo
(45.7500°N, 9.6000°E)
Time: 02:57:36
(UTC+00:00)

Cosmos 2315 Rocket - Pass Details

Date: 12 May 2021
Orbit: 965 x 1003 km, 82.9° (Epoch: 18 June)

Event Time Altitude Azimuth Distance (km) Brightness Sun altitude
Rises 20:08:03 0° 189° (S) 3,708 6.7 -12.8°
Reaches altitude 10° 20:10:33 10° 190° (S) 2,765 6.0 -13.1°
Maximum altitude 20:16:56 83° 277° (W) 1,016 4.1 -13.9°
Drops below altitude 10° 20:23:22 10° 7° (N) 2,784 7.0 -14.7°
Sets 20:25:54 0° 9° (N) 3,736 7.7 -15.0°
